Regional Weather Roundup
Issued by NWS Northern Indiana

Home | Current Version | Previous Version | Graphics & Text | Print | Product List | Glossary On
Versions: 1 2 3 4 5 6 7 8 9 10 11 12 13 14 15 16 17 18 19 20 21 22 23 24 25 26 27 28 29 30 31 32 33 34 35 36 37 38 39 40 41 42 43 44 45 46 47 48 49 50
000
ASUS43 KIWX 031610
RWRIWX

KIWX WEATHER ROUNDUP
NATIONAL WEATHER SERVICE NORTHERN INDIANA
1200 PM EDT SUN MAY 03 2015

NOTE: "FAIR" INDICATES FEW OR NO CLOUDS BELOW 12,000 FEET WITH NO
SIGNIFICANT WEATHER AND/OR OBSTRUCTIONS TO VISIBILITY.

* THESE STATIONS ARE NOT UNDER NWS QUALITY CONTROL. THEY ALSO MAY NOT
  REPORT WEATHER SUCH AS PRECIPITATION OR FOG.

INZ001>027-031700-
NORTHERN INDIANA

CITY           SKY/WX    TMP DP  RH WIND       PRES   REMARKS
GARY*          PTSUNNY   75 N/A N/A SW18        N/A
VALPARAISO     PTSUNNY   76  42  29 S18G30    30.02S
MICHIGAN CITY* MOSUNNY   77  34  20 S17G23    30.01S
LAPORTE*       MOSUNNY   77  43  30 SW16G23   30.02F
KNOX*          SUNNY     75   3   6 SW18      30.02S
SOUTH BEND     MOSUNNY   76  42  29 S14G24    30.03S
ELKHART*       MOSUNNY   75  37  25 S10       30.03
GOSHEN         SUNNY     73  47  39 SW17G24   30.04F
MONTICELLO*    FAIR      73  50  43 S13G18    30.04F
LOGANSPORT*    PTSUNNY   72  43  35 SW13G23   30.07S
ROCHESTER*     SUNNY     77  46  33 SW9G18    30.06S
WARSAW*        SUNNY     72  46  40 SW9G16    30.06S
ANGOLA*        SUNNY     73  66  78 SW13      30.06S
FORT WAYNE     MOSUNNY   74  46  36 SW16      30.08S
HUNTINGTON*    SUNNY     73  47  40 SW9       30.08S
PERU/GRISSOM   MOSUNNY   71  50  47 S14       30.06S
MARION*        CLOUDY    69  45  42 SW12      30.10S

$$
INZ028>050-031700-
CENTRAL INDIANA

CITY           SKY/WX    TMP DP  RH WIND       PRES   REMARKS
LAFAYETTE      MOSUNNY   72  45  37 SW13      30.05S
MUNCIE*        PTSUNNY   71  47  42 SW10      30.10R
INDIANAPOLIS   PTSUNNY   72  50  45 S10G21    30.08S

$$
MIZ043>046-050>051-056>058-064>065-071>073-077>080-031700-
SOUTHWEST LOWER MICHIGAN

CITY           SKY/WX    TMP DP  RH WIND       PRES   REMARKS
BATTLE CREEK   SUNNY     74  43  32 SW16      30.04S
BENTON HARBOR  PTSUNNY   73  46  38 S12G18    30.00S
COLDWATER*     SUNNY     72  43  34 SW7G18    30.05S
HILLSDALE*     SUNNY     74  40  28 S13       30.06S
HOLLAND        PTSUNNY   72  46  39 SW16      30.00F
GRAND RAPIDS   PTSUNNY   75  44  33 SW17G26   30.00F
KALAMAZOO      MOSUNNY   76  43  30 SW14G28   30.03S
STURGIS*       SUNNY     72  46  40 SW13G22   30.04F
THREE RIVERS*  FAIR      74  46  37 S14       30.04S

$$
OHZ001>008-015>018-024>025-031700-
NORTHWEST OHIO

CITY           SKY/WX    TMP DP  RH WIND       PRES   REMARKS
WAUSEON*       FAIR      73  43  33 W13G18    30.07F
DEFIANCE       SUNNY     74  44  34 S12       30.07F
FINDLAY        SUNNY     75  45  34 SW13      30.09S
TOLEDO EXPRESS SUNNY     73  42  32 SW10G22   30.07F
TOLEDO METCALF SUNNY     75  44  33 SW14G23   30.08F
LIMA           SUNNY     72  45  37 S14G26    30.10S

$$
AND FOR LAKE MICHIGAN COASTAL AND OPEN LAKE BUOY OBSERVATIONS

STATION/POSITION TEMP    WIND        PRES    VSBY  WAVE
                 AIR SEA DIR/SP/G                  HT/PER
                 (F)     (DEG/KT/KT) (MB)    (MI)  (FT/S)
CALUMET HARBOR    72     190/ 11/ 18   N/A
MICHIGAN CITY     72     180/ 17/ 22   N/A
BURNS HARBOR      73     190/ 17/ 22 1016.3S
SAINT JOSEPH      67     180/  9/ 12 1015.9F
4 MI NW BRIDGMAN  58 49  230/  4/  4   N/A           1
MICHIGAN CITY     63 50  220/ 10/ 14   N/A           1

$$
&&


USA.gov is the U.S. government's official web portal to all federal, state and local government web resources and services.